Year,Month,Day,Hour,Minute,Value (Times are PST for windspeed in km/hr)
2012,11,17,00,00,8.90
2012,11,17,00,01,11.30
2012,11,17,00,02,8.50
2012,11,17,00,03,5.70
2012,11,17,00,04,8.10
2012,11,17,00,05,3.80
2012,11,17,00,06,3.60
2012,11,17,00,07,9.00
2012,11,17,00,08,8.80
2012,11,17,00,09,7.50
2012,11,17,00,10,9.70
2012,11,17,00,11,8.20
2012,11,17,00,12,4.30
2012,11,17,00,13,6.50
2012,11,17,00,14,5.80
2012,11,17,00,15,4.30
2012,11,17,00,16,7.10
2012,11,17,00,17,6.50
2012,11,17,00,18,5.50
2012,11,17,00,19,7.10
2012,11,17,00,20,4.00
2012,11,17,00,21,3.60
2012,11,17,00,22,8.20
2012,11,17,00,23,6.40
2012,11,17,00,24,2.80
2012,11,17,00,25,8.30
2012,11,17,00,26,8.70
2012,11,17,00,27,10.10
2012,11,17,00,28,7.20
2012,11,17,00,29,7.50
2012,11,17,00,30,3.90
2012,11,17,00,31,3.70
2012,11,17,00,32,3.20
2012,11,17,00,33,5.20
2012,11,17,00,34,6.90
2012,11,17,00,35,6.60
2012,11,17,00,36,6.00
2012,11,17,00,37,4.90
2012,11,17,00,38,5.50
2012,11,17,00,39,5.20
2012,11,17,00,40,6.40
2012,11,17,00,41,4.70
2012,11,17,00,42,4.80
2012,11,17,00,43,3.50
2012,11,17,00,44,1.40
2012,11,17,00,45,1.60
2012,11,17,00,46,0.60
2012,11,17,00,47,0.20
2012,11,17,00,48,5.90
2012,11,17,00,49,5.00
2012,11,17,00,50,6.80
2012,11,17,00,51,2.90
2012,11,17,00,52,0.80
2012,11,17,00,53,0.00
2012,11,17,00,54,0.00
2012,11,17,00,55,0.00
2012,11,17,00,56,0.60
2012,11,17,00,57,3.30
2012,11,17,00,58,2.00
2012,11,17,00,59,0.00
2012,11,17,01,00,0.20
2012,11,17,01,01,1.90
2012,11,17,01,02,4.30
2012,11,17,01,03,1.90
2012,11,17,01,04,0.80
2012,11,17,01,05,1.50
2012,11,17,01,06,2.20
2012,11,17,01,07,1.00
2012,11,17,01,08,0.90
2012,11,17,01,09,0.30
2012,11,17,01,10,1.40
2012,11,17,01,11,11.10
2012,11,17,01,12,13.60
2012,11,17,01,13,11.30
2012,11,17,01,14,6.80
2012,11,17,01,15,9.40
2012,11,17,01,16,8.50
2012,11,17,01,17,7.60
2012,11,17,01,18,5.90
2012,11,17,01,19,9.70
2012,11,17,01,20,17.60
2012,11,17,01,21,13.30
2012,11,17,01,22,8.20
2012,11,17,01,23,8.60
2012,11,17,01,24,14.20
2012,11,17,01,25,11.20
2012,11,17,01,26,9.50
2012,11,17,01,27,7.20
2012,11,17,01,28,7.60
2012,11,17,01,29,8.80
2012,11,17,01,30,9.40
2012,11,17,01,31,16.30
2012,11,17,01,32,9.20
2012,11,17,01,33,7.80
2012,11,17,01,34,10.60
2012,11,17,01,35,7.20
2012,11,17,01,36,8.80
2012,11,17,01,37,7.80
2012,11,17,01,38,4.70
2012,11,17,01,39,4.80
2012,11,17,01,40,7.80
2012,11,17,01,41,9.80
2012,11,17,01,42,14.20
2012,11,17,01,43,11.70
2012,11,17,01,44,10.60
2012,11,17,01,45,14.40
2012,11,17,01,46,11.40
2012,11,17,01,47,13.20
2012,11,17,01,48,13.70
2012,11,17,01,49,12.90
2012,11,17,01,50,13.20
2012,11,17,01,51,11.60
2012,11,17,01,52,12.10
2012,11,17,01,53,13.40
2012,11,17,01,54,7.90
2012,11,17,01,55,7.40
2012,11,17,01,56,12.80
2012,11,17,01,57,9.10
2012,11,17,01,58,13.90
2012,11,17,01,59,9.00
2012,11,17,02,00,17.60
2012,11,17,02,01,11.50
2012,11,17,02,02,9.20
2012,11,17,02,03,7.40
2012,11,17,02,04,4.50
2012,11,17,02,05,10.30
2012,11,17,02,06,10.30
2012,11,17,02,07,10.10
2012,11,17,02,08,8.40
2012,11,17,02,09,6.70
2012,11,17,02,10,7.30
2012,11,17,02,11,6.90
2012,11,17,02,12,6.00
2012,11,17,02,13,8.90
2012,11,17,02,14,7.30
2012,11,17,02,15,5.00
2012,11,17,02,16,5.10
2012,11,17,02,17,4.20
2012,11,17,02,18,4.00
2012,11,17,02,19,9.40
2012,11,17,02,20,8.10
2012,11,17,02,21,9.80
2012,11,17,02,22,7.30
2012,11,17,02,23,6.40
2012,11,17,02,24,7.50
2012,11,17,02,25,10.30
2012,11,17,02,26,8.90
2012,11,17,02,27,8.30
2012,11,17,02,28,9.10
2012,11,17,02,29,8.10
2012,11,17,02,30,1.60
2012,11,17,02,31,8.50
2012,11,17,02,32,4.70
2012,11,17,02,33,13.10
2012,11,17,02,34,9.30
2012,11,17,02,35,4.10
2012,11,17,02,36,6.80
2012,11,17,02,37,4.80
2012,11,17,02,38,4.70
2012,11,17,02,39,3.80
2012,11,17,02,40,6.80
2012,11,17,02,41,9.10
2012,11,17,02,42,9.00
2012,11,17,02,43,10.90
2012,11,17,02,44,6.50
2012,11,17,02,45,6.40
2012,11,17,02,46,13.70
2012,11,17,02,47,9.50
2012,11,17,02,48,13.40
2012,11,17,02,49,13.80
2012,11,17,02,50,9.20
2012,11,17,02,51,16.80
2012,11,17,02,52,17.30
2012,11,17,02,53,22.20
2012,11,17,02,54,18.00
2012,11,17,02,55,12.30
2012,11,17,02,56,17.10
2012,11,17,02,57,16.00
2012,11,17,02,58,16.00
2012,11,17,02,59,16.20
2012,11,17,03,00,12.60
2012,11,17,03,01,14.70
2012,11,17,03,02,14.30
2012,11,17,03,03,13.80
2012,11,17,03,04,6.70
2012,11,17,03,05,7.70
2012,11,17,03,06,7.90
2012,11,17,03,07,12.20
2012,11,17,03,08,11.20
2012,11,17,03,09,9.00
2012,11,17,03,10,8.70
2012,11,17,03,11,13.00
2012,11,17,03,12,10.20
2012,11,17,03,13,10.90
2012,11,17,03,14,11.20
2012,11,17,03,15,8.00
2012,11,17,03,16,11.70
2012,11,17,03,17,8.00
2012,11,17,03,18,12.70
2012,11,17,03,19,16.30
2012,11,17,03,20,16.90
2012,11,17,03,21,9.40
2012,11,17,03,22,16.30
2012,11,17,03,23,12.50
2012,11,17,03,24,16.40
2012,11,17,03,25,11.30
2012,11,17,03,26,13.00
2012,11,17,03,27,14.10
2012,11,17,03,28,13.70
2012,11,17,03,29,16.70
2012,11,17,03,30,14.20
2012,11,17,03,31,15.90
2012,11,17,03,32,15.60
2012,11,17,03,33,11.30
2012,11,17,03,34,6.80
2012,11,17,03,35,6.50
2012,11,17,03,36,8.80
2012,11,17,03,37,13.00
2012,11,17,03,38,7.30
2012,11,17,03,39,5.80
2012,11,17,03,40,9.30
2012,11,17,03,41,8.10
2012,11,17,03,42,8.90
2012,11,17,03,43,9.80
2012,11,17,03,44,10.90
2012,11,17,03,45,7.60
2012,11,17,03,46,9.90
2012,11,17,03,47,10.20
2012,11,17,03,48,6.30
2012,11,17,03,49,7.10
2012,11,17,03,50,7.40
2012,11,17,03,51,6.20
2012,11,17,03,52,5.70
2012,11,17,03,53,5.40
2012,11,17,03,54,9.70
2012,11,17,03,55,9.10
2012,11,17,03,56,12.70
2012,11,17,03,57,17.60
2012,11,17,03,58,9.30
2012,11,17,03,59,10.30
2012,11,17,04,00,7.50
2012,11,17,04,01,10.10
2012,11,17,04,02,8.60
2012,11,17,04,03,5.10
2012,11,17,04,04,7.20
2012,11,17,04,05,3.90
2012,11,17,04,06,2.90
2012,11,17,04,07,7.50
2012,11,17,04,08,9.90
2012,11,17,04,09,5.10
2012,11,17,04,10,3.20
2012,11,17,04,11,3.40
2012,11,17,04,12,7.20
2012,11,17,04,13,5.30
2012,11,17,04,14,1.70
2012,11,17,04,15,4.30
2012,11,17,04,16,5.30
2012,11,17,04,17,12.10
2012,11,17,04,18,11.90
2012,11,17,04,19,21.00
2012,11,17,04,20,12.90
2012,11,17,04,21,17.10
2012,11,17,04,22,22.30
2012,11,17,04,23,10.90
2012,11,17,04,24,16.90
2012,11,17,04,25,18.50
2012,11,17,04,26,18.10
2012,11,17,04,27,12.80
2012,11,17,04,28,17.40
2012,11,17,04,29,9.70
2012,11,17,04,30,10.60
2012,11,17,04,31,14.30
2012,11,17,04,32,22.80
2012,11,17,04,33,18.80
2012,11,17,04,34,10.30
2012,11,17,04,35,22.60
2012,11,17,04,36,19.50
2012,11,17,04,37,24.50
2012,11,17,04,38,21.60
2012,11,17,04,39,19.10
2012,11,17,04,40,14.80
2012,11,17,04,41,15.00
2012,11,17,04,42,20.40
2012,11,17,04,43,20.40
2012,11,17,04,44,21.00
2012,11,17,04,45,15.70
2012,11,17,04,46,15.00
2012,11,17,04,47,17.50
2012,11,17,04,48,12.60
2012,11,17,04,49,16.10
2012,11,17,04,50,11.50
2012,11,17,04,51,10.60
2012,11,17,04,52,16.70
2012,11,17,04,53,7.50
2012,11,17,04,54,10.40
2012,11,17,04,55,10.10
2012,11,17,04,56,12.20
2012,11,17,04,57,6.90
2012,11,17,04,58,16.50
2012,11,17,04,59,15.90
2012,11,17,05,00,8.10
2012,11,17,05,01,4.40
2012,11,17,05,02,6.20
2012,11,17,05,03,8.90
2012,11,17,05,04,5.60
2012,11,17,05,05,9.20
2012,11,17,05,06,4.10
2012,11,17,05,07,4.10
2012,11,17,05,08,7.60
2012,11,17,05,09,3.50
2012,11,17,05,10,4.50
2012,11,17,05,11,4.90
2012,11,17,05,12,5.50
2012,11,17,05,13,8.60
2012,11,17,05,14,10.30
2012,11,17,05,15,12.30
2012,11,17,05,16,8.90
2012,11,17,05,17,5.10
2012,11,17,05,18,4.10
2012,11,17,05,19,4.80
2012,11,17,05,20,4.30
2012,11,17,05,21,8.20
2012,11,17,05,22,8.20
2012,11,17,05,23,5.60
2012,11,17,05,24,10.30
2012,11,17,05,25,5.30
2012,11,17,05,26,3.10
2012,11,17,05,27,2.20
2012,11,17,05,28,2.70
2012,11,17,05,29,3.10
2012,11,17,05,30,2.90
2012,11,17,05,31,3.70
2012,11,17,05,32,4.80
2012,11,17,05,33,5.20
2012,11,17,05,34,7.30
2012,11,17,05,35,9.30
2012,11,17,05,36,12.70
2012,11,17,05,37,9.70
2012,11,17,05,38,8.00
2012,11,17,05,39,8.10
2012,11,17,05,40,8.30
2012,11,17,05,41,5.60
2012,11,17,05,42,9.90
2012,11,17,05,43,8.90
2012,11,17,05,44,9.20
2012,11,17,05,45,8.00
2012,11,17,05,46,8.40
2012,11,17,05,47,10.90
2012,11,17,05,48,8.70
2012,11,17,05,49,11.80
2012,11,17,05,50,5.50
2012,11,17,05,51,9.80
2012,11,17,05,52,15.40
2012,11,17,05,53,12.50
2012,11,17,05,54,11.20
2012,11,17,05,55,7.60
2012,11,17,05,56,19.30
2012,11,17,05,57,15.80
2012,11,17,05,58,7.60
2012,11,17,05,59,11.60
2012,11,17,06,00,10.80
2012,11,17,06,01,10.90
2012,11,17,06,02,7.80
2012,11,17,06,03,10.30
2012,11,17,06,04,9.50
2012,11,17,06,05,8.70
2012,11,17,06,06,15.90
2012,11,17,06,07,14.20
2012,11,17,06,08,14.80
2012,11,17,06,09,8.90
2012,11,17,06,10,14.90
2012,11,17,06,11,17.80
2012,11,17,06,12,15.70
2012,11,17,06,13,17.40
2012,11,17,06,14,24.20
2012,11,17,06,15,23.60
2012,11,17,06,16,21.30
2012,11,17,06,17,15.20
2012,11,17,06,18,16.10
2012,11,17,06,19,11.00
2012,11,17,06,20,10.50
2012,11,17,06,21,16.60
2012,11,17,06,22,13.00
2012,11,17,06,23,21.70
2012,11,17,06,24,15.90
2012,11,17,06,25,9.70
2012,11,17,06,26,13.00
2012,11,17,06,27,16.70
2012,11,17,06,28,13.90
2012,11,17,06,29,10.40
2012,11,17,06,30,12.30
2012,11,17,06,31,7.00
2012,11,17,06,32,18.30
2012,11,17,06,33,19.20
2012,11,17,06,34,16.30
2012,11,17,06,35,15.80
2012,11,17,06,36,16.50
2012,11,17,06,37,19.00
2012,11,17,06,38,21.40
2012,11,17,06,39,13.80
2012,11,17,06,40,15.90
2012,11,17,06,41,22.00
2012,11,17,06,42,24.70
2012,11,17,06,43,18.70
2012,11,17,06,44,23.90
2012,11,17,06,45,21.20
2012,11,17,06,46,19.80
2012,11,17,06,47,17.50
2012,11,17,06,48,20.60
2012,11,17,06,49,18.40
2012,11,17,06,50,14.70
2012,11,17,06,51,18.70
2012,11,17,06,52,22.40
2012,11,17,06,53,12.90
2012,11,17,06,54,19.50
2012,11,17,06,55,12.90
2012,11,17,06,56,11.70
2012,11,17,06,57,17.50
2012,11,17,06,58,16.30
2012,11,17,06,59,16.30
2012,11,17,07,00,14.20
2012,11,17,07,01,15.00
2012,11,17,07,02,15.80
2012,11,17,07,03,10.30
2012,11,17,07,04,17.10
2012,11,17,07,05,15.70
2012,11,17,07,06,21.60
2012,11,17,07,07,19.20
2012,11,17,07,08,21.90
2012,11,17,07,09,23.20
2012,11,17,07,10,18.30
2012,11,17,07,11,17.50
2012,11,17,07,12,14.80
2012,11,17,07,13,19.80
2012,11,17,07,14,20.70
2012,11,17,07,15,21.20
2012,11,17,07,16,22.10
2012,11,17,07,17,23.30
2012,11,17,07,18,21.70
2012,11,17,07,19,23.90
2012,11,17,07,20,18.00
2012,11,17,07,21,14.60
2012,11,17,07,22,20.80
2012,11,17,07,23,15.90
2012,11,17,07,24,19.20
2012,11,17,07,25,17.60
2012,11,17,07,26,16.10
2012,11,17,07,27,21.30
2012,11,17,07,28,18.70
2012,11,17,07,29,24.50
2012,11,17,07,30,27.40
2012,11,17,07,31,22.40
2012,11,17,07,32,18.20
2012,11,17,07,33,20.60
2012,11,17,07,34,20.20
2012,11,17,07,35,31.70
2012,11,17,07,36,26.00
2012,11,17,07,37,28.10
2012,11,17,07,38,21.60
2012,11,17,07,39,17.60
2012,11,17,07,40,23.40
2012,11,17,07,41,17.00
2012,11,17,07,42,24.90
2012,11,17,07,43,20.00
2012,11,17,07,44,17.80
2012,11,17,07,45,19.80
2012,11,17,07,46,20.90
2012,11,17,07,47,18.90
2012,11,17,07,48,27.20
2012,11,17,07,49,27.60
2012,11,17,07,50,24.30
2012,11,17,07,51,24.90
2012,11,17,07,52,24.40
2012,11,17,07,53,28.80
2012,11,17,07,54,31.80
2012,11,17,07,55,25.40
2012,11,17,07,56,21.70
2012,11,17,07,57,24.10
2012,11,17,07,58,27.20
2012,11,17,07,59,20.50
2012,11,17,08,00,12.20
2012,11,17,08,01,31.40
2012,11,17,08,02,23.40
2012,11,17,08,03,30.10
2012,11,17,08,04,23.30
2012,11,17,08,05,26.60
2012,11,17,08,06,25.10
2012,11,17,08,07,23.10
2012,11,17,08,08,18.30
2012,11,17,08,09,11.80
2012,11,17,08,10,24.30
2012,11,17,08,11,24.30
2012,11,17,08,12,29.50
2012,11,17,08,13,24.20
2012,11,17,08,14,14.30
2012,11,17,08,15,22.10
2012,11,17,08,16,23.00
2012,11,17,08,17,7.40
2012,11,17,08,18,15.80
2012,11,17,08,19,16.90
2012,11,17,08,20,17.60
2012,11,17,08,21,23.70
2012,11,17,08,22,21.40
2012,11,17,08,23,19.50
2012,11,17,08,24,18.20
2012,11,17,08,25,25.40
2012,11,17,08,26,19.70
2012,11,17,08,27,25.20
2012,11,17,08,28,22.00
2012,11,17,08,29,20.00
2012,11,17,08,30,17.10
2012,11,17,08,31,22.70
2012,11,17,08,32,16.30
2012,11,17,08,33,23.80
2012,11,17,08,34,22.00
2012,11,17,08,35,19.10
2012,11,17,08,36,12.70
2012,11,17,08,37,17.90
2012,11,17,08,38,22.00
2012,11,17,08,39,20.60
2012,11,17,08,40,26.80
2012,11,17,08,41,20.10
2012,11,17,08,42,22.80
2012,11,17,08,43,19.40
2012,11,17,08,44,25.30
2012,11,17,08,45,27.30
2012,11,17,08,46,22.10
2012,11,17,08,47,12.40
2012,11,17,08,48,20.20
2012,11,17,08,49,23.40
2012,11,17,08,50,16.30
2012,11,17,08,51,19.90
2012,11,17,08,52,20.90
2012,11,17,08,53,19.30
2012,11,17,08,54,19.80
2012,11,17,08,55,13.30
2012,11,17,08,56,18.70
2012,11,17,08,57,17.00
2012,11,17,08,58,19.10
2012,11,17,08,59,23.90
2012,11,17,09,00,15.20
2012,11,17,09,01,18.40
2012,11,17,09,02,26.70
2012,11,17,09,03,18.30
2012,11,17,09,04,17.00
2012,11,17,09,05,28.60
2012,11,17,09,06,23.00
2012,11,17,09,07,19.10
2012,11,17,09,08,17.90
2012,11,17,09,09,19.10
2012,11,17,09,10,20.20
2012,11,17,09,11,20.30
2012,11,17,09,12,14.50
2012,11,17,09,13,19.40
2012,11,17,09,14,25.70
2012,11,17,09,15,22.90
2012,11,17,09,16,22.40
2012,11,17,09,17,8.10
2012,11,17,09,18,9.60
2012,11,17,09,19,8.70
2012,11,17,09,20,12.60
2012,11,17,09,21,9.90
2012,11,17,09,22,13.50
2012,11,17,09,23,6.00
2012,11,17,09,24,5.60
2012,11,17,09,25,5.30
2012,11,17,09,26,3.40
2012,11,17,09,27,13.50
2012,11,17,09,28,9.70
2012,11,17,09,29,15.70
2012,11,17,09,30,11.30
2012,11,17,09,31,10.20
2012,11,17,09,32,12.30
2012,11,17,09,33,10.80
2012,11,17,09,34,7.90
2012,11,17,09,35,7.30
2012,11,17,09,36,8.50
2012,11,17,09,37,7.30
2012,11,17,09,38,8.10
2012,11,17,09,39,7.50
2012,11,17,09,40,5.70
2012,11,17,09,41,6.40
2012,11,17,09,42,9.10
2012,11,17,09,43,3.50
2012,11,17,09,44,5.40
2012,11,17,09,45,5.30
2012,11,17,09,46,7.60
2012,11,17,09,47,4.40
2012,11,17,09,48,0.20
2012,11,17,09,49,5.70
2012,11,17,09,50,2.40
2012,11,17,09,51,0.30
2012,11,17,09,52,3.40
2012,11,17,09,53,3.80
2012,11,17,09,54,6.50
2012,11,17,09,55,6.20
2012,11,17,09,56,1.50
2012,11,17,09,57,1.20
2012,11,17,09,58,3.90
2012,11,17,09,59,0.00
2012,11,17,10,00,0.00
2012,11,17,10,01,2.80
2012,11,17,10,02,2.70
2012,11,17,10,03,0.50
2012,11,17,10,04,0.60
2012,11,17,10,05,0.00
2012,11,17,10,06,0.00
2012,11,17,10,07,0.20
2012,11,17,10,08,0.00
2012,11,17,10,09,1.10
2012,11,17,10,10,0.90
2012,11,17,10,11,4.70
2012,11,17,10,12,1.80
2012,11,17,10,13,4.70
2012,11,17,10,14,0.90
2012,11,17,10,15,1.40
2012,11,17,10,16,1.00
2012,11,17,10,17,1.00
2012,11,17,10,18,6.40
2012,11,17,10,19,3.10
2012,11,17,10,20,5.30
2012,11,17,10,21,2.30
2012,11,17,10,22,6.30
2012,11,17,10,23,5.30
2012,11,17,10,24,4.30
2012,11,17,10,25,2.70
2012,11,17,10,26,0.80
2012,11,17,10,27,0.00
2012,11,17,10,28,2.60
2012,11,17,10,29,2.20
2012,11,17,10,30,0.00
2012,11,17,10,31,0.10
2012,11,17,10,32,1.60
2012,11,17,10,33,5.10
2012,11,17,10,34,5.00
2012,11,17,10,35,7.40
2012,11,17,10,36,3.40
2012,11,17,10,37,3.60
2012,11,17,10,38,4.20
2012,11,17,10,39,2.30
2012,11,17,10,40,8.00
2012,11,17,10,41,6.60
2012,11,17,10,42,8.40
2012,11,17,10,43,6.20
2012,11,17,10,44,11.90
2012,11,17,10,45,3.20
2012,11,17,10,46,5.00
2012,11,17,10,47,1.10
2012,11,17,10,48,4.50
2012,11,17,10,49,2.80
2012,11,17,10,50,0.70
2012,11,17,10,51,9.80
2012,11,17,10,52,8.40
2012,11,17,10,53,8.90
2012,11,17,10,54,9.30
2012,11,17,10,55,11.70
2012,11,17,10,56,8.00
2012,11,17,10,57,2.20
2012,11,17,10,58,3.10
2012,11,17,10,59,3.90
2012,11,17,11,00,1.50
2012,11,17,11,01,6.80
2012,11,17,11,02,6.10
2012,11,17,11,03,3.90
2012,11,17,11,04,2.60
2012,11,17,11,05,5.10
2012,11,17,11,06,8.60
2012,11,17,11,07,7.30
2012,11,17,11,08,8.50
2012,11,17,11,09,11.10
2012,11,17,11,10,15.80
2012,11,17,11,11,8.00
2012,11,17,11,12,4.20
2012,11,17,11,13,0.80
2012,11,17,11,14,1.40
2012,11,17,11,15,3.80
2012,11,17,11,16,11.70
2012,11,17,11,17,9.50
2012,11,17,11,18,11.20
2012,11,17,11,19,9.70
2012,11,17,11,20,11.20
2012,11,17,11,21,7.00
2012,11,17,11,22,7.90
2012,11,17,11,23,10.40
2012,11,17,11,24,14.00
2012,11,17,11,25,14.80
2012,11,17,11,26,7.60
2012,11,17,11,27,15.10
2012,11,17,11,28,4.00
2012,11,17,11,29,8.10
2012,11,17,11,30,8.90
2012,11,17,11,31,6.70
2012,11,17,11,32,8.50
2012,11,17,11,33,8.80
2012,11,17,11,34,7.60
2012,11,17,11,35,10.90
2012,11,17,11,36,16.30
2012,11,17,11,37,10.50
2012,11,17,11,38,8.20
2012,11,17,11,39,11.10
2012,11,17,11,40,16.30
2012,11,17,11,41,11.30
2012,11,17,11,42,8.10
2012,11,17,11,43,11.00
2012,11,17,11,44,12.00
2012,11,17,11,45,5.10
2012,11,17,11,46,9.50
2012,11,17,11,47,12.50
2012,11,17,11,48,10.90
2012,11,17,11,49,6.00
2012,11,17,11,50,4.20
2012,11,17,11,51,6.90
2012,11,17,11,52,4.60
2012,11,17,11,53,6.40
2012,11,17,11,54,13.90
2012,11,17,11,55,14.10
2012,11,17,11,56,4.70
2012,11,17,11,57,3.00
2012,11,17,11,58,5.60
2012,11,17,11,59,2.70
2012,11,17,12,00,3.50
2012,11,17,12,01,8.50
2012,11,17,12,02,13.00
2012,11,17,12,03,9.80
2012,11,17,12,04,7.20
2012,11,17,12,05,6.50
2012,11,17,12,06,6.50
2012,11,17,12,07,7.10
2012,11,17,12,08,6.80
2012,11,17,12,09,5.20
2012,11,17,12,10,14.90
2012,11,17,12,11,7.00
2012,11,17,12,12,10.50
2012,11,17,12,13,8.30
2012,11,17,12,14,5.10
2012,11,17,12,15,9.30
2012,11,17,12,16,10.70
2012,11,17,12,17,6.00
2012,11,17,12,18,5.50
2012,11,17,12,19,9.50
2012,11,17,12,20,17.70
2012,11,17,12,21,10.40
2012,11,17,12,22,8.10
2012,11,17,12,23,13.40
2012,11,17,12,24,10.30
2012,11,17,12,25,7.30
2012,11,17,12,26,5.50
2012,11,17,12,27,3.50
2012,11,17,12,28,7.00
2012,11,17,12,29,11.70
2012,11,17,12,30,8.50
2012,11,17,12,31,7.90
2012,11,17,12,32,6.00
2012,11,17,12,33,14.90
2012,11,17,12,34,8.60
2012,11,17,12,35,10.10
2012,11,17,12,36,12.60
2012,11,17,12,37,18.20
2012,11,17,12,38,13.40
2012,11,17,12,39,11.10
2012,11,17,12,40,11.80
2012,11,17,12,41,11.30
2012,11,17,12,42,8.90
2012,11,17,12,43,17.50
2012,11,17,12,44,11.80
2012,11,17,12,45,17.50
2012,11,17,12,46,18.60
2012,11,17,12,47,14.50
2012,11,17,12,48,8.60
2012,11,17,12,49,3.90
2012,11,17,12,50,9.30
2012,11,17,12,51,8.80
2012,11,17,12,52,6.40
2012,11,17,12,53,6.60
2012,11,17,12,54,8.50
2012,11,17,12,55,18.40
2012,11,17,12,56,13.20
2012,11,17,12,57,9.20
2012,11,17,12,58,11.90
2012,11,17,12,59,12.20
2012,11,17,13,00,14.30
2012,11,17,13,01,11.30
2012,11,17,13,02,9.50
2012,11,17,13,03,19.60
2012,11,17,13,04,7.40
2012,11,17,13,05,8.40
2012,11,17,13,06,7.00
2012,11,17,13,07,11.80
2012,11,17,13,08,13.00
2012,11,17,13,09,9.10
2012,11,17,13,10,8.40
2012,11,17,13,11,3.80
2012,11,17,13,12,7.60
2012,11,17,13,13,8.20
2012,11,17,13,14,3.60
2012,11,17,13,15,13.30
2012,11,17,13,16,10.20
2012,11,17,13,17,10.20
2012,11,17,13,18,5.40
2012,11,17,13,19,7.70
2012,11,17,13,20,5.10
2012,11,17,13,21,6.40
2012,11,17,13,22,7.30
2012,11,17,13,23,3.40
2012,11,17,13,24,1.60
2012,11,17,13,25,2.70
2012,11,17,13,26,3.20
2012,11,17,13,27,1.40
2012,11,17,13,28,0.90
2012,11,17,13,29,2.70
2012,11,17,13,30,4.60
2012,11,17,13,31,3.50
2012,11,17,13,32,0.50
2012,11,17,13,33,2.70
2012,11,17,13,34,4.50
2012,11,17,13,35,5.30
2012,11,17,13,36,12.20
2012,11,17,13,37,5.00
2012,11,17,13,38,10.30
2012,11,17,13,39,13.80
2012,11,17,13,40,10.90
2012,11,17,13,41,11.20
2012,11,17,13,42,10.00
2012,11,17,13,43,11.80
2012,11,17,13,44,10.00
2012,11,17,13,45,7.80
2012,11,17,13,46,5.60
2012,11,17,13,47,3.90
2012,11,17,13,48,5.80
2012,11,17,13,49,5.70
2012,11,17,13,50,9.70
2012,11,17,13,51,8.80
2012,11,17,13,52,11.30
2012,11,17,13,53,9.40
2012,11,17,13,54,7.90
2012,11,17,13,55,5.90
2012,11,17,13,56,4.00
2012,11,17,13,57,5.60
2012,11,17,13,58,5.20
2012,11,17,13,59,6.70
2012,11,17,14,00,5.70
2012,11,17,14,01,4.70
2012,11,17,14,02,3.40
2012,11,17,14,03,3.20
2012,11,17,14,04,4.70
2012,11,17,14,05,3.80
2012,11,17,14,06,2.70
2012,11,17,14,07,1.80
2012,11,17,14,08,5.80
2012,11,17,14,09,6.00
2012,11,17,14,10,4.30
2012,11,17,14,11,4.80
2012,11,17,14,12,6.50
2012,11,17,14,13,4.30
2012,11,17,14,14,6.10
2012,11,17,14,15,5.60
2012,11,17,14,16,3.90
2012,11,17,14,17,2.70
2012,11,17,14,18,7.30
2012,11,17,14,19,6.70
2012,11,17,14,20,3.10
2012,11,17,14,21,3.10
2012,11,17,14,22,3.20
2012,11,17,14,23,1.30
2012,11,17,14,24,4.50
2012,11,17,14,25,3.00
2012,11,17,14,26,0.10
2012,11,17,14,27,2.40
2012,11,17,14,28,0.30
2012,11,17,14,29,2.60
2012,11,17,14,30,5.10
2012,11,17,14,31,3.70
2012,11,17,14,32,4.40
2012,11,17,14,33,5.30
2012,11,17,14,34,4.10
2012,11,17,14,35,3.90
2012,11,17,14,36,2.90
2012,11,17,14,37,8.70
2012,11,17,14,38,4.40
2012,11,17,14,39,6.80
2012,11,17,14,40,7.40
2012,11,17,14,41,4.30
2012,11,17,14,42,8.80
2012,11,17,14,43,6.50
2012,11,17,14,44,3.80
2012,11,17,14,45,5.20
2012,11,17,14,46,1.90
2012,11,17,14,47,5.10
2012,11,17,14,48,7.00
2012,11,17,14,49,8.40
2012,11,17,14,50,3.50
2012,11,17,14,51,4.70
2012,11,17,14,52,4.00
2012,11,17,14,53,1.40
2012,11,17,14,54,6.10
2012,11,17,14,55,7.30
2012,11,17,14,56,7.00
2012,11,17,14,57,9.70
2012,11,17,14,58,3.90
2012,11,17,14,59,4.70
2012,11,17,15,00,7.10
2012,11,17,15,01,9.20
2012,11,17,15,02,7.30
2012,11,17,15,03,7.40
2012,11,17,15,04,8.00
2012,11,17,15,05,5.70
2012,11,17,15,06,8.60
2012,11,17,15,07,13.20
2012,11,17,15,08,10.80
2012,11,17,15,09,6.40
2012,11,17,15,10,4.20
2012,11,17,15,11,4.80
2012,11,17,15,12,3.60
2012,11,17,15,13,3.70
2012,11,17,15,14,9.50
2012,11,17,15,15,5.50
2012,11,17,15,16,6.40
2012,11,17,15,17,5.20
2012,11,17,15,18,3.30
2012,11,17,15,19,4.30
2012,11,17,15,20,5.10
2012,11,17,15,21,1.00
2012,11,17,15,22,7.50
2012,11,17,15,23,4.40
2012,11,17,15,24,5.50
2012,11,17,15,25,3.10
2012,11,17,15,26,3.60
2012,11,17,15,27,7.60
2012,11,17,15,28,7.60
2012,11,17,15,29,5.40
2012,11,17,15,30,6.80
2012,11,17,15,31,1.70
2012,11,17,15,32,3.50
2012,11,17,15,33,4.40
2012,11,17,15,34,4.70
2012,11,17,15,35,5.70
2012,11,17,15,36,3.90
2012,11,17,15,37,2.70
2012,11,17,15,38,0.30
2012,11,17,15,39,1.60
2012,11,17,15,40,3.50
2012,11,17,15,41,6.30
2012,11,17,15,42,3.70
2012,11,17,15,43,5.00
2012,11,17,15,44,4.70
2012,11,17,15,45,4.70
2012,11,17,15,46,10.10
2012,11,17,15,47,4.70
2012,11,17,15,48,4.00
2012,11,17,15,49,5.40
2012,11,17,15,50,4.30
2012,11,17,15,51,4.20
2012,11,17,15,52,7.60
2012,11,17,15,53,3.90
2012,11,17,15,54,3.60
2012,11,17,15,55,3.10
2012,11,17,15,56,4.70
2012,11,17,15,57,5.20
2012,11,17,15,58,5.60
2012,11,17,15,59,5.30
2012,11,17,16,00,4.30
2012,11,17,16,01,2.50
2012,11,17,16,02,3.20
2012,11,17,16,03,5.90
2012,11,17,16,04,2.20
2012,11,17,16,05,2.60
2012,11,17,16,06,4.20
2012,11,17,16,07,2.70
2012,11,17,16,08,0.40
2012,11,17,16,09,3.00
2012,11,17,16,10,1.90
2012,11,17,16,11,3.30
2012,11,17,16,12,0.90
2012,11,17,16,13,2.10
2012,11,17,16,14,1.80
2012,11,17,16,15,4.40
2012,11,17,16,16,1.90
2012,11,17,16,17,0.10
2012,11,17,16,18,3.00
2012,11,17,16,19,4.90
2012,11,17,16,20,4.70
2012,11,17,16,21,2.60
2012,11,17,16,22,4.70
2012,11,17,16,23,3.30
2012,11,17,16,24,3.10
2012,11,17,16,25,2.30
2012,11,17,16,26,3.60
2012,11,17,16,27,3.30
2012,11,17,16,28,1.80
2012,11,17,16,29,3.10
2012,11,17,16,30,0.20
2012,11,17,16,31,2.00
2012,11,17,16,32,0.50
2012,11,17,16,33,0.00
2012,11,17,16,34,0.00
2012,11,17,16,35,0.00
2012,11,17,16,36,0.60
2012,11,17,16,37,0.10
2012,11,17,16,38,0.10
2012,11,17,16,39,2.30
2012,11,17,16,40,0.40
2012,11,17,16,41,0.40
2012,11,17,16,42,2.80
2012,11,17,16,43,2.90
2012,11,17,16,44,3.90
2012,11,17,16,45,3.30
2012,11,17,16,46,4.40
2012,11,17,16,47,5.10
2012,11,17,16,48,6.00
2012,11,17,16,49,6.90
2012,11,17,16,50,4.70
2012,11,17,16,51,3.90
2012,11,17,16,52,3.50
2012,11,17,16,53,2.90
2012,11,17,16,54,2.70
2012,11,17,16,55,2.70
2012,11,17,16,56,4.50
2012,11,17,16,57,4.30
2012,11,17,16,58,6.80
2012,11,17,16,59,5.30
2012,11,17,17,00,5.40
2012,11,17,17,01,6.50
2012,11,17,17,02,7.00
2012,11,17,17,03,10.10
2012,11,17,17,04,9.90
2012,11,17,17,05,8.40
2012,11,17,17,06,9.60
2012,11,17,17,07,8.70
2012,11,17,17,08,12.90
2012,11,17,17,09,9.80
2012,11,17,17,10,10.50
2012,11,17,17,11,11.10
2012,11,17,17,12,8.50
2012,11,17,17,13,9.90
2012,11,17,17,14,10.00
2012,11,17,17,15,6.20
2012,11,17,17,16,6.90
2012,11,17,17,17,5.00
2012,11,17,17,18,10.20
2012,11,17,17,19,8.60
2012,11,17,17,20,13.30
2012,11,17,17,21,11.10
2012,11,17,17,22,8.60
2012,11,17,17,23,9.60
2012,11,17,17,24,10.10
2012,11,17,17,25,5.30
2012,11,17,17,26,8.20
2012,11,17,17,27,11.70
2012,11,17,17,28,15.30
2012,11,17,17,29,13.00
2012,11,17,17,30,10.80
2012,11,17,17,31,10.10
2012,11,17,17,32,8.90
2012,11,17,17,33,11.50
2012,11,17,17,34,8.90
2012,11,17,17,35,8.80
2012,11,17,17,36,7.70
2012,11,17,17,37,11.00
2012,11,17,17,38,11.80
2012,11,17,17,39,6.40
2012,11,17,17,40,9.90
2012,11,17,17,41,8.50
2012,11,17,17,42,6.10
2012,11,17,17,43,0.10
2012,11,17,17,44,7.70
2012,11,17,17,45,14.30
2012,11,17,17,46,6.80
2012,11,17,17,47,4.20